www.pogodaiklimat.ru

Погода и климат >> Архив погоды >> Китай >> Гуандун >> Шаньтоу


ПОГОДА в Шаньтоу

  • Прогноз погоды в Шаньтоу
  • Монитор погоды в Шаньтоу

АРХИВ ПОГОДЫ в Шаньтоу

Время (UTC), дата Ветер
(напр.,м/с)
 
Видим.   Явления Облачность Т
(С)
Тd
(С)
f
(%)
Тe
(С)
Тes
(С)
Комфортность P
(гПа)
Po
(гПа)
Тmin
(С)
Tmax
(С)
R
(мм)
R24
(мм)
S
(см)
00 13.09 В 2 28 км 4/4 600 м
[]
+29.9 +25.6 78 +44 +47 опасность
перегрева
1009.7 1009.3
03 13.09 В 3 30 км 4/4 600 м
[]
+33.4 +21.5 50 +41 +50 опасность
перегрева
1009.1 1008.8
06 13.09 В 2 30 км ясно +34.6 +21.9 48 +43 +59 опасность
перегрева
1006.8 1006.4 +28.3
09 13.09 В 3 30 км ясно +32.1 +23.0 59 +42 +44 опасность
перегрева
1006.7 1006.4
12 13.09 В 2 30 км 1/1 600 м
[]
+30.0 +23.6 69 +41 +41 опасность
перегрева
1008.2 1007.8
15 13.09 В 1 30 км н/о +29.7 +23.8 71 +41 +41 опасность
перегрева
1009.3 1009.0
18 13.09 В 1 30 км н/о +29.4 +25.1 78 +43 +43 опасность
перегрева
1008.5 1008.1 +34.7
21 13.09 Ю 1 25 км н/о +29.0 +25.1 80 +42 +42 опасность
перегрева
1008.3 1008.0
00 14.09 В 1 21 км 8/8 600 м
[]
+29.5 +25.6 80 +44 +45 опасность
перегрева
1009.3 1008.9 0.0
03 14.09 ЮВ 2 25 км {дождь} 9/9 600 м
[]
+31.0 +25.1 71 +45 +46 опасность
перегрева
1009.3 1009.0
06 14.09 ЮВ 2 25 км {дождь} 9/9 600 м
[]
+32.5 +23.9 61 +44 +46 опасность
перегрева
1007.4 1007.0 +28.0 0.0
09 14.09 ЮВ 3 23 км ясно +30.6 +23.7 67 +42 +44 опасность
перегрева
1007.3 1007.0
12 14.09 В 2 26 км 5/5 600 м
[]
+29.5 +24.3 74 +41 +41 опасность
перегрева
1009.3 1008.9
15 14.09 З 2 12 км в посл. час дождь н/о +27.4 +27.0 98 +43 +43 опасность
перегрева
1010.3 1010.0
18 14.09 З 1 14 км слаб. дождь ?/? +27.5 +27.4 99 +44 +44 опасность
перегрева
1009.1 1008.7 +32.6 0.1
21 14.09 штиль 0 8000 м н/о +27.1 +27.0 99 +42 +42 опасность
перегрева
1008.7 1008.4
00 15.09 З 1 18 км ?/? +28.9 +23.7 74 +40 +40 очень
душно
1010.0 1009.6 0.3
03 15.09 СЗ 1 30 км 9/9 600 м
[]
+32.1 +22.2 56 +41 +43 опасность
перегрева
1009.3 1009.0
06 15.09 ЮВ 1 30 км 9/9 600 м
[]
+32.9 +22.3 54 +42 +44 опасность
перегрева
1006.4 1006.0 +27.0
09 15.09 В 2 30 км 3/3 600 м
[]
+30.8 +23.1 64 +41 +43 опасность
перегрева
1006.2 1005.9
12 15.09 В 2 30 км 4/4 600 м
[]
+29.2 +23.1 70 +39 +39 очень
душно
1008.3 1007.9
15 15.09 В 1 30 км н/о +29.1 +22.8 69 +39 +39 очень
душно
1009.1 1008.8
18 15.09 В 1 30 км н/о +28.2 +23.3 75 +38 +38 очень
душно
1008.1 1007.7 +33.6
21 15.09 В 2 30 км н/о +27.9 +22.8 74 +37 +37 очень
душно
1007.8 1007.5
00 16.09 Ю 1 22 км ясно +28.7 +23.6 74 +39 +44 очень
душно
1009.3 1008.9
03 16.09 С 1 30 км 8/8 600 м
[]
+31.6 +22.0 57 +40 +44 очень
душно
1008.5 1008.2
06 16.09 В 3 30 км 3/3 600 м
[]
+33.0 +22.4 54 +42 +51 опасность
перегрева
1006.5 1006.1 +27.2
09 16.09 В 3 26 км 3/3 600 м
[]
+30.8 +24.4 69 +43 +44 опасность
перегрева
1006.1 1005.8
12 16.09 В 3 28 км ясно +29.3 +23.2 70 +40 +40 очень
душно
1007.6 1007.2
15 16.09 В 2 28 км н/о +29.2 +22.9 69 +39 +39 очень
душно
1008.6 1008.3
18 16.09 В 2 23 км н/о +28.5 +24.0 77 +40 +40 очень
душно
1008.0 1007.6 +33.5
21 16.09 В 2 21 км н/о +27.8 +22.9 75 +37 +37 очень
душно
1008.7 1008.4
00 17.09 В 2 22 км 3/3 600 м
[]
+28.9 +21.4 64 +37 +39 очень
душно
1010.5 1010.1
03 17.09 З 1 21 км 8/8 600 м
[]
+31.6 +21.7 56 +40 +44 очень
душно
1010.1 1009.8
06 17.09 В 3 30 км 4/4 600 м
[]
+31.8 +21.3 54 +40 +47 очень
душно
1008.2 1007.8 +27.7
09 17.09 В 2 30 км ясно +30.4 +22.0 61 +39 +41 очень
душно
1008.1 1007.8
12 17.09 В 3 30 км ясно +28.8 +22.0 67 +37 +37 очень
душно
1009.8 1009.4
15 17.09 В 2 30 км н/о +28.5 +22.2 69 +37 +37 очень
душно
1010.9 1010.6
18 17.09 В 3 30 км н/о +27.7 +21.0 67 +35 +35 очень
душно
1010.5 1010.1 +32.7
21 17.09 С 1 30 км н/о +27.4 +19.7 63 +33 +33 очень
душно
1010.6 1010.3
00 18.09 В 1 19 км 4/4 600 м
[]
+29.1 +20.5 60 +36 +39 очень
душно
1012.1 1011.7
03 18.09 В 2 30 км 3/3 600 м
[]
+31.6 +19.5 49 +37 +49 очень
душно
1011.7 1011.4
06 18.09 Ю 2 30 км ясно +32.1 +20.3 50 +39 +54 опасность
солнечного
удара
1009.6 1009.2 +26.7
09 18.09 ЮВ 3 27 км ясно +30.4 +21.2 58 +38 +40 очень
душно
1009.9 1009.6
12 18.09 В 3 30 км 3/3 600 м
[]
+29.1 +21.8 65 +37 +37 очень
душно
1011.6 1011.2
15 18.09 В 2 30 км н/о +28.5 +17.9 53 +33 +33 очень
душно
1012.3 1012.0
18 18.09 В 2 30 км н/о +27.2 +16.7 53 +31 +31 душно 1011.7 1011.3 +33.0
21 18.09 СВ 1 30 км н/о +26.2 +17.0 57 +30 +30 душно 1011.9 1011.6
00 19.09 В 1 30 км ясно +27.8 +18.2 56 +33 +37 очень
душно
1012.8 1012.4
03 19.09 В 2 30 км 1/1 300 м
[]
+30.1 +17.2 46 +34 +49 очень
душно
1012.3 1012.0
06 19.09 С 2 30 км ясно +31.6 +14.7 36 +34 +48 душно 1009.9 1009.5 +25.8
09 19.09 В 3 30 км ясно +29.8 +17.9 49 +34 +36 очень
душно
1009.2 1008.9
12 19.09 В 2 30 км ясно +27.8 +19.3 60 +33 +33 очень
душно
1010.7 1010.3
15 19.09 В 1 30 км н/о +26.9 +20.2 67 +33 +33 очень
душно
1011.0 1010.7
18 19.09 В 1 30 км н/о +25.9 +19.0 66 +31 +31 очень
душно
1009.7 1009.3 +32.2
21 19.09 Ю 1 19 км н/о +25.0 +20.2 75 +31 +31 очень
душно
1009.6 1009.3

 

Местоположение метеостанции Шаньтоу (Гуандун, Китай): широта 23.40 долгота 116.68 высота над уровнем моря 3 м.

В архиве по умолчанию представлена погода в Шаньтоу за последнюю неделю. Архивные данные за месяц целиком и за предыдущие месяцы, начиная с января 2011 года, Вы можете получить, выбрав интересующий диапазон дат из раскрывающегося списка и нажав кнопку "Ввод!".


*Определитесь, кто Вы:
робот инопланетянин человек

Внимание! Время в таблицах - всемирное. Для получения местного времени необходимо прибавить поправку, которая равна 8 ч.

Смотрите также архив погоды в соседних городах и на ближайших метеорологических станциях:

Погода в Мэйсяне (Гуандун, Китай) (116 км)
Погода в Шаньвэе (Гуандун, Китай) (152 км)
Погода в Сямэне (Фуцзянь, Китай) (186 км)
Погода в Сюньву (Цзяньси, Китай) (202 км)
Погода в Хэюане (Гуандун, Китай) (204 км)
Погода в Чжанпине (Фуцзянь, Китай) (224 км)
Погода в Лиянпине (Гуандун, Китай) (248 км)
Погода в Чантине (Фуцзянь, Китай) (274 км)
Погода Ta Kwu Ling (Гонконг) (277 км)
Погода Sha Tin (Гонконг) (277 км)

Пояснения к столбцам:

Ветер - указаны скорость ветра в м/с - средняя за 10 мин, порывы в срок и между сроками (в фигурных скобках) и направление, откуда дует ветер: С - северный, СВ - северо-восточный, В - восточный, ЮВ - юго-восточный, Ю - южный, ЮЗ - юго-западный, З - западный, СЗ - северо-западный.
Видимость - горизонтальная дальность видимости в метрах или километрах. При видимости от 1 до 10 км при отсутствии осадков обычно наблюдается дымка, при ухудшении видимости до 1 км и менее - туман. В сухую погоду видимость может ухудшаться дымом, пылью или мглою.
Явления - указаны атмосферные явления, наблюдавшиеся в срок или в последний час перед сроком; фигурными скобками обозначены явления, наблюдавшиеся между сроками (за 1-3 часа до срока); квадратными скобками обозначены град или гололедные отложения с указанием их диаметра в мм.
Облачность - указаны через наклонную черту общая и нижняя облачность в баллах и высота нижней границы облаков в метрах; квадратными скобками обозначены формы облаков: Ci - перистые, Cs - перисто-слоистые, Cc - перисто-кучевые, Ac - высококучевые, As - высокослоистые, Sc - слоисто-кучевые, Ns - слоисто-дождевые, Cu - кучевые, Cb - кучево-дождевые. Подробнее классификацию облаков см. в Атласе облаков (PDF).
T - Температура воздуха - температура, измеренная на высоте 2 м над землей.
Td - Температура точки росы - температура, при понижении до которой содержащийся в воздухе водяной пар достигнет насыщения.
f - Относительная влажность воздуха - влажноcть воздуха, измеренная на высоте 2 м над землей.
Te - Эффективная температура - температура, которую ощущает одетый по сезону человек в тени. Характеристика душности погоды. При расчете учитывается влияние влажности воздуха и скорости ветра на теплоощущения человека.
Tes - Эффективная температура на солнце - температура, которую ощущает человек, с поправкой на солнечный нагрев. Характеристика знойности погоды. Зависит от высоты солнца над горизонтом, облачности и скорости ветра. Ночью, в пасмурную погоду, а также при ветре 12 м/с и более поправка равна нулю.
P - Атмосферное давление - приведенное к уровню моря атмосферное давление.
Po - Атмосферное давление - измеренное на уровне метеостанции атмосферное давление.
Tmin - Минимальная температура - минимум температуры воздуха на высоте 2 м над землей.
Tmax - Максимальная температура - максимум температуры воздуха на высоте 2 м над землей.
R - Количество осадков - Количество выпавших осадков за период времени, мм. При наведении курсора мыши на число - период времени, за который выпало указанное количество осадков.
R24 - Количество осадков - Количество выпавших осадков за 24 часа, мм.
S - Снежный покров - Высота снежного покрова, см. При наведении курсора мыши на число - состояние снежного покрова и степень покрытия местности в баллах.